Tracking 18850 objects as of 22-Nov-2017
HD Live streaming from Space Station
objects crossing your sky now

FENGYUN 1C DEB

Track FENGYUN 1C DEB now!
10-day predictions


NORAD ID: 37419
Int'l Code: 1999-025EGM
Perigee: 652.2 km
Apogee: 1,387.2 km
Inclination: 98.6 °
Period: 105.4 minutes
Semi major axis: 7390 km
RCS: 0.0035 m2 (small)
Launch date: May 10, 1999
Source: People's Republic of China (PRC)
Launch site: Taiyaun Space Center, China (TSC)

Note: This is SATELLITE DEBRIS
aabbcc
Your satellite tracking list
Your tracking list is empty




NASA's NSSDC Master Catalog

Two Line Element Set (TLE):
1 37419U 99025EGM 17307.60915057  .00001443  00000-0  76088-3 0  9994
2 37419  98.6112 226.8305 0497260 225.1301 126.0420 13.66396489348725
Source of the keplerian elements: AFSPC